Regional Weather Roundup
Issued by NWS

Home | Current Version | Previous Version | Graphics & Text | Print | Product List | Glossary On
Versions: 1 2 3 4 5 6 7 8 9 10 11 12 13 14 15 16 17 18 19 20 21 22 23 24 25 26 27 28
000
ASUS45 KTFX 030110
RWRMT
MONTANA REGIONAL WEATHER ROUNDUP
NATIONAL WEATHER SERVICE GREAT FALLS MT
700 PM MDT MON MAY 02 2016

NOTE: "FAIR" INDICATES FEW OR NO CLOUDS BELOW 12000 FEET WITH NO
SIGNIFICANT WEATHER AND/OR OBSTRUCTIONS TO VISIBILITY.

MTZ001>007-043-030200-
WEST OF THE DIVIDE

CITY           SKY/WX    TMP DP  RH WIND       PRES   REMARKS
KALISPELL        N/A     73  40  30 S8        30.06F
MISSOULA         N/A     74  33  22 N8        30.07F
BUTTE          SUNNY     67  16  14 NW3       30.15F
MULLAN PASS      N/A     62  28  27 CALM      30.19F
$$

MTZ008-052>055-030200-
SOUTHWEST MONTANA

CITY           SKY/WX    TMP DP  RH WIND       PRES   REMARKS
BOZEMAN        SUNNY     69  26  20 CALM      30.13S
DILLON         SUNNY     67  19  16 CALM      30.13F
ENNIS          SUNNY     64  18  16 N14       30.19F
$$

MTZ009-010-012-014-046-048-049-054-030200-
EAST SLOPES AND CENTRAL MONTANA

CITY           SKY/WX    TMP DP  RH WIND       PRES   REMARKS
CUT BANK         N/A     73  26  17 CALM      30.08F
GREAT FALLS    SUNNY     70  27  20 CALM      30.09F
HELENA         SUNNY     74  21  13 NE3       30.10S
$$

MTZ011-013-016-021-045-047-050-051-030200-
NORTH CENTRAL MONTANA

CITY           SKY/WX    TMP DP  RH WIND       PRES   REMARKS
HAVRE          SUNNY     74  37  26 CALM      30.06F
LEWISTOWN      SUNNY     67  34  29 N5        30.13S
N BAR RANCH      N/A     63  32  31 NE12      30.16S
$$

MTZ017>020-022>027-061-062-030200-
NORTHEAST MONTANA

CITY           SKY/WX    TMP DP  RH WIND       PRES   REMARKS
GLASGOW        SUNNY     74  38  27 NW12      30.00S
JORDAN           N/A     70  41  34 NW12      30.05S
SIDNEY         SUNNY     70  30  23 NE12      29.99S
WOLF POINT     SUNNY     77  38  24 NE10      29.98S
$$

MTZ028>42-056>058-030200-
SOUTHCENTRAL AND SOUTHEAST MONTANA

CITY           SKY/WX    TMP DP  RH WIND       PRES   REMARKS
BAKER          SUNNY     67  35  30 NE10      30.01S
BILLINGS       MOSUNNY   68  32  26 E8        30.11S
LIVINGSTON     SUNNY     70  24  17 NW5       30.11S
MILES CITY     SUNNY     70  36  28 NW15      30.03F
$$

REGIONAL REPORTS...DAKOTAS

CITY           SKY/WX    TMP DP  RH WIND       PRES   REMARKS
WILLISTON      SUNNY     71  24  17 N10       29.99S
MINOT          CLEAR     69  34  27 E6        29.97S
DICKINSON      CLEAR     62  32  32 NE12      29.99R
BISMARCK       CLEAR     62  42  47 E7        29.98R
GRAND FORKS    PTCLDY    67  31  26 SW6       29.94S
FARGO          PTCLDY    66  33  29 W13       29.96R
BUFFALO SD       N/A     65  29  25 NE18      29.93R
RAPID CITY     LGT RAIN  59  38  45 NW16G26   29.97F
$$

REGIONAL REPORTS...WYOMING/IDAHO/WASHINGTON

CITY           SKY/WX    TMP DP  RH WIND       PRES   REMARKS
GILLETTE       SUNNY     58  35  42 N12       30.11S
SHERIDAN       SUNNY     63  35  35 NW15      30.12R
BUFFALO WY       N/A    N/A N/A N/A MISG      30.14R
CODY           SUNNY     63  27  25 N10       30.15S
YELLOWSTONE LA   N/A     50  14  23 CALM      30.26S
IDAHO FALLS    SUNNY     66  15  14 SW3       30.16F
SALMON         SUNNY     72  27  18 N5        30.05F
BOISE            N/A     73  23  15 SE3       30.07S
SPOKANE          N/A     77  36  22 CALM      30.04F
$$

REGIONAL REPORTS...ALBERTA

CITY           SKY/WX    TMP DP  RH WIND       PRES   REMARKS
EDMONTON       MOSUNNY   81  37  21 SE7       29.95F
CALGARY        MOSUNNY   77  28  16 S14       30.01F
LETHBRIDGE     MOSUNNY   75  36  23 SE8       30.03F
MEDICINE HAT   MOSUNNY   75  37  25 W3        30.03S
WATERTON GATE    N/A     70  30  23 SW10        N/A
CARDSTON         N/A     77  28  16 SW1         N/A
MILK RIVER       N/A     72  36  26 E5          N/A
ONEFOUR          N/A     72  36  26 W3          N/A
$$

REGIONAL REPORTS...SASKATCHEWAN

CITY           SKY/WX    TMP DP  RH WIND       PRES   REMARKS
SWIFT CURRENT  SUNNY     72  37  28 NE5       30.02S
REGINA         PTSUNNY   70  30  23 NE9       29.99S
SASKATOON      MOSUNNY   77  37  24 N8        29.98S
CYPRESS HILLS    N/A     66  32  28 N3          N/A
VAL MARIE        N/A     72  37  28 N9          N/A
ROCKGLEN         N/A     68  32  26 N7          N/A
ASSINIBOIA       N/A     81  34  18 S5          N/A
$$




USA.gov is the U.S. government's official web portal to all federal, state and local government web resources and services.